This is the latest recevied weather packets stored in our database for station/object Dunnningn. If no packets are shown the sender has not sent any weather packets the latest 10 day(s).
| Time | Temp. | Humidity | Pressure | Rain* | Wind** | Luminosity | Snow |
|---|---|---|---|---|---|---|---|
| 1777260731 | 2.22° C | 81% | 1021.6 hPa | 0 mm | - | - | - |
| 1777258931 | 2.22° C | 80% | 1021.6 hPa | 0 mm | - | - | - |
| 1777257131 | 2.78° C | 79% | 1021.6 hPa | 0 mm | - | - | - |
| 1777255332 | 3.33° C | 78% | 1021.8 hPa | 0 mm | - | - | - |
| 1777253531 | 3.33° C | 78% | 1021.9 hPa | 0 mm | - | - | - |
| 1777251731 | 3.89° C | 76% | 1022.1 hPa | 0 mm | - | - | - |
| 1777249930 | 4.44° C | 75% | 1022.3 hPa | 0 mm | - | - | - |
| 1777248129 | 5° C | 72% | 1022.4 hPa | 0 mm | - | - | - |
| 1777246330 | 5.56° C | 71% | 1022.5 hPa | 0 mm | - | - | - |
| 1777244532 | 6.67° C | 69% | 1022.6 hPa | 0 mm | - | - | - |
| 1777242729 | 7.22° C | 67% | 1022.5 hPa | 0 mm | - | - | - |
| 1777240932 | 8.33° C | 63% | 1022.5 hPa | 0 mm | - | - | - |
| 1777239130 | 8.89° C | 61% | 1022.7 hPa | 0 mm | - | - | - |
| 1777237329 | 10° C | 57% | 1022.7 hPa | 0 mm | - | - | - |
| 1777235530 | 11.11° C | 54% | 1022.7 hPa | 0 mm | - | - | - |
| 1777233730 | 11.67° C | 52% | 1022.4 hPa | 0 mm | - | - | - |
| 1777231930 | 12.78° C | 49% | 1022.2 hPa | 0 mm | - | - | - |
| 1777230130 | 13.33° C | 46% | 1021.6 hPa | 0 mm | - | - | - |
| 1777228331 | 15° C | 44% | 1021.2 hPa | 0 mm | - | - | - |
| 1777226529 | 16.11° C | 41% | 1021 hPa | 0 mm | - | - | - |
| 1777224730 | 17.22° C | 40% | 1020.9 hPa | 0 mm | - | - | - |
| 1777222930 | 17.78° C | 37% | 1020.9 hPa | 0 mm | - | - | - |
| 1777221130 | 19.44° C | 33% | 1021 hPa | 0 mm | - | - | - |
| 1777219331 | 20.56° C | 29% | 1021 hPa | 0 mm | - | - | - |
| 1777217530 | 20.56° C | 24% | 1021.1 hPa | 0 mm | - | - | - |
* Rain since midnight (hover to see other rain measurements)
** Current wind speed in m/s (hover to see current wind gust speed)